Regional Weather Roundup
Issued by NWS

Current Version | Previous Version | Text Only | Print | Product List | Glossary On
Versions: 1 2 3 4 5 6 7 8 9 10 11 12 13 14 15 16 17 18 19 20 21 22 23 24 25 26 27 28 29 30 31 32 33 34 35 36 37 38 39 40 41 42 43 44 45 46 47 48 49 50
000
ASUS46 KSEW 281810
RWRWA

WASHINGTON REGIONAL WEATHER ROUNDUP
NATIONAL WEATHER SERVICE SEATTLE WA
1100 AM PDT SAT MAY 28 2016

NOTE:"FAIR" INDICATES FEW OR NO CLOUDS BELOW 12,000 FEET WITH NO
SIGNIFICANT WEATHER AND/OR OBSTRUCTIONS TO VISIBILITY.

WAZ505-507>509-281900-
SEATTLE, TACOMA, EVERETT, AND VICINITY

CITY           SKY/WX    TMP DP  RH WIND       PRES   REMARKS
EVERETT        LGT RAIN  52  47  83 S18       30.05S
6HR MIN TEMP:  48; 6HR MAX TEMP:  52; 6HR PCP:  0.04;

BOEING FIELD   CLOUDY    57  50  77 SE14G23   30.08S
6HR MIN TEMP:  50; 6HR MAX TEMP:  57; 6HR PCP:  0.02;

RENTON         CLOUDY    57  49  74 S10       30.07S
6HR MIN TEMP:  50; 6HR MAX TEMP:  58; 6HR PCP:  0.02;

SEATAC AIRPORT CLOUDY    57  48  72 SW10      30.08S
6HR MIN TEMP:  49; 6HR MAX TEMP:  57; 6HR PCP:  0.03;

JBLM-MCCHORD   CLOUDY    59  47  65 SW14      30.08R
6HR MIN TEMP:  48; 6HR MAX TEMP:  59; 6HR PCP: TRACE;

PUYALLUP       CLOUDY    59  46  63 VRB3G13   30.08S
BREMERTON      CLOUDY    52  50  93 S12       30.08S
6HR MIN TEMP:  46; 6HR MAX TEMP:  52; 6HR PCP:  0.05;

JBLM-FT LEWIS  LGT RAIN  59  46  63 S13       30.07S
6HR MIN TEMP:  48; 6HR MAX TEMP:  58; 6HR PCP: TRACE;

TACOMA NARROWS CLOUDY    56  46  69 S16       30.08S
6HR MIN TEMP:  49; 6HR MAX TEMP:  57; 6HR PCP: TRACE;

$$

WAZ001-503-506-510-514-515-281900-
NORTH INTERIOR

CITY           SKY/WX    TMP DP  RH WIND       PRES   REMARKS
BELLINGHAM     LGT RAIN  53  46  77 SE18G29   30.00S
6HR MIN TEMP:  49; 6HR MAX TEMP:  53; 6HR PCP:  0.17;

FRIDAY HARBOR  CLOUDY    52  47  83 SE17G26   30.01S
6HR MIN TEMP:  48; 6HR MAX TEMP:  52; 6HR PCP:  0.04;

EASTSOUND      LGT RAIN  52  48  87 S12G20    29.98R
PORT ANGELES   CLOUDY    54  50  86 E5        29.97F
6HR MIN TEMP:  48; 6HR MAX TEMP:  54; 6HR PCP:  0.06;

EDIZ HOOK      CLOUDY    52  50  93 NE5       29.98S
6HR MIN TEMP:  48; 6HR MAX TEMP:  52; 6HR PCP:  0.06;

PORT TOWNSEND  CLOUDY    54  50  87 SE5G14    30.01S
NAS WHIDBEY    CLOUDY    54  49  83 SE18G28   30.05S
6HR MIN TEMP:  50; 6HR MAX TEMP:  54; 6HR PCP:  0.05;

ARLINGTON      CLOUDY    52  41  66 SE14G21   30.07F
6HR MIN TEMP:  48; 6HR MAX TEMP:  52; 6HR PCP:  0.01;

BURLINGTON     CLOUDY    52  46  82 SE10G18   30.04S
$$

WAZ020-022-039-040-504-511-512-281900-
SOUTHWEST INTERIOR

CITY           SKY/WX    TMP DP  RH WIND       PRES   REMARKS
SHELTON        LGT RAIN  54  51  90 SW10      30.05S
6HR MIN TEMP:  48; 6HR MAX TEMP:  55; 6HR PCP:  0.11;

OLYMPIA        CLOUDY    57  46  66 S12       30.08S
6HR MIN TEMP:  49; 6HR MAX TEMP:  57; 6HR PCP: TRACE;

CHEHALIS       CLOUDY    59  48  67 S9G17     30.10R
KELSO          CLOUDY    59  43  55 SE9       30.15S
6HR MIN TEMP:  48; 6HR MAX TEMP:  59;

VANCOUVER      MOSUNNY   60  43  53 CALM      30.11F
6HR MIN TEMP:  48; 6HR MAX TEMP:  61;

SCAPPOOSE, OR  CLOUDY    59  46  62 SE8       30.11F
6HR MIN TEMP:  46; 6HR MAX TEMP:  60;

PORTLAND, OR   MOSUNNY   60  44  55 N7        30.12F
6HR MIN TEMP:  48; 6HR MAX TEMP:  61;

$$

WAZ021-516-517-281900-
WASHINGTON COAST

CITY           SKY/WX    TMP DP  RH WIND       PRES   REMARKS
FORKS          RAIN      52  51  97 S10G21    29.99S VSB 1
6HR MIN TEMP:  50; 6HR MAX TEMP:  52; 6HR PCP:  1.13;

HOQUIAM        LGT RAIN  54  53  97 S15       30.07S FOG
6HR MIN TEMP:  52; 6HR MAX TEMP:  54; 6HR PCP:  0.33;

ASTORIA, OR    CLOUDY    56  49  77 S13       30.09S
6HR MIN TEMP:  51; 6HR MAX TEMP:  57; 6HR PCP:  0.01;

$$

WAZ019-023-024-040-518-519-281900-
CASCADE MOUNTAINS AND COLUMBIA GORGE

CITY           SKY/WX    TMP DP  RH WIND       PRES   REMARKS
STAMPEDE PASS  CLOUDY    43  39  86 VRB3      30.06R
6HR MIN TEMP:  34; 6HR MAX TEMP:  43; 6HR PCP:  0.04;

TROUTDALE, OR  SUNNY     62  45  53 VRB5      30.11F
6HR MIN TEMP:  46; 6HR MAX TEMP:  62;

THE DALLES, OR SUNNY     65  36  34 CALM      30.07F
6HR MIN TEMP:  49; 6HR MAX TEMP:  66;

$$

WAZ026-027-041>044-520-521-281900-
EAST SLOPES

CITY           SKY/WX    TMP DP  RH WIND       PRES   REMARKS
OMAK           MOSUNNY   63  35  35 SE14G24   30.00F
6HR MIN TEMP:  45; 6HR MAX TEMP:  64;

WENATCHEE      MOSUNNY   61  32  33 E7        30.02F
6HR MIN TEMP:  50; 6HR MAX TEMP:  62;

ELLENSBURG     CLOUDY    61  37  41 CALM      30.04F
6HR MIN TEMP:  45; 6HR MAX TEMP:  61;

YAKIMA         SUNNY     65  34  31 VRB6      30.05F
6HR MIN TEMP:  48; 6HR MAX TEMP:  65;

$$

WAZ028-034-035-281900-
COLUMBIA BASIN

CITY           SKY/WX    TMP DP  RH WIND       PRES   REMARKS
EPHRATA        MOSUNNY   60  33  36 SW12      30.04R
6HR MIN TEMP:  45; 6HR MAX TEMP:  62;

MOSES LAKE     MOSUNNY   61  34  36 S9        30.06S
6HR MIN TEMP:  48; 6HR MAX TEMP:  62;

PASCO          SUNNY     64  37  36 VRB6      30.08F
6HR MIN TEMP:  49; 6HR MAX TEMP:  65;

HERMISTON, OR    N/A     65  38  36 SW10G16   30.08F
6HR MIN TEMP:  47; 6HR MAX TEMP:  65;

$$

WAZ036>038-281900-
NORTHEAST WASHINGTON

CITY           SKY/WX    TMP DP  RH WIND       PRES   REMARKS
SPOKANE GEIGER PTSUNNY   54  35  48 SW6       30.06F
6HR MIN TEMP:  42; 6HR MAX TEMP:  54;

SPOKANE FELTS  PTSUNNY   56  37  49 SW10      30.08S
6HR MIN TEMP:  45; 6HR MAX TEMP:  57;

FAIRCHILD AFB  PTSUNNY   57  35  44 SW13      30.06S
6HR MIN TEMP:  38; 6HR MAX TEMP:  57;

COEURDALENE,ID CLOUDY    54  36  50 CALM      30.06S
6HR MIN TEMP:  43; 6HR MAX TEMP:  54;

DEER PARK      PTSUNNY   57  34  41 SW14      30.07S
6HR MIN TEMP:  39; 6HR MAX TEMP:  57;

$$

WAZ029>033-281900-
SOUTHEAST WASHINGTON

CITY           SKY/WX    TMP DP  RH WIND       PRES   REMARKS
PULLMAN        MOSUNNY   55  37  50 CALM      30.10S
6HR MIN TEMP:  41; 6HR MAX TEMP:  55;

LEWISTON, ID   SUNNY     62  39  42 MISG      30.07F
6HR MIN TEMP:  45; 6HR MAX TEMP:  63;

WALLA WALLA    MOSUNNY   61  38  42 SW15G22   30.09S
6HR MIN TEMP:  48; 6HR MAX TEMP:  61;

PENDLETON, OR  SUNNY     60  35  39 VRB5G17   30.07F
6HR MIN TEMP:  45; 6HR MAX TEMP:  61;

$$



USA.gov is the U.S. government's official web portal to all federal, state and local government web resources and services.